Regional Weather Roundup
Issued by NWS State College, PA

Current Version | Previous Version | Text Only | Print | Product List | Glossary On
Versions: 1 2 3 4 5 6 7 8 9 10 11 12 13 14 15 16 17 18 19 20 21 22 23 24 25 26 27 28 29 30 31 32 33 34 35 36 37 38 39 40 41 42 43 44 45 46 47 48 49 50
000
ASUS41 KCTP 160610
RWRCTP

REGIONAL WEATHER ROUNDUP
NATIONAL WEATHER SERVICE STATE COLLEGE PA
200 AM EDT SUN MAY 16 2021

Note: "fair" indicates few or no clouds below 12,000 feet with no
significant weather and/or obstructions to visibility.

* = STATION THAT DOES NOT REPORT PRECIPITATION /E.G. RAIN...SNOW...ETC/
    THUNDER OR FOG.

PAZ002>004-007>009-013>016-020>023-029>032-160700-
WESTERN PENNSYLVANIA

CITY           SKY/WX    TMP DP  RH WIND       PRES   REMARKS
ERIE           PTCLDY    54  33  45 SE7       30.21S
MEADVILLE      MOCLDY    54  32  43 E3        30.21F
FRANKLIN       MOCLDY    51  34  52 E3        30.23S
NEW CASTLE     FAIR      49  42  77 CALM      30.22S
BEAVER COUNTY  MOCLDY    55  39  55 N3        30.21S
BUTLER         MOCLDY    50  42  74 CALM      30.22S
PITTSBURGH INT CLOUDY    54  41  61 CALM      30.20S
PITTSBURGH     MOCLDY    56  41  57 E3        30.19F
INDIANA*       CLOUDY    50  39  66 CALM      30.25F
LATROBE        MOCLDY    48  43  81 CALM      30.21F
WASHINGTON CO* MOCLDY    48  43  82 CALM      30.23F
$$

PAZ004>006-010>012-017>019-024>028-033>037-041-042-045-046-049>053-160700-
CENTRAL PENNSYLVANIA

CITY           SKY/WX    TMP DP  RH WIND       PRES   REMARKS
BRADFORD       CLOUDY    46  33  60 CALM      30.24F
ST MARYS       CLOUDY    46  36  66 CALM      30.26S
DUBOIS         CLOUDY    54  31  41 CALM      30.22S
CLEARFIELD     MOCLDY    46  34  62 CALM      30.23S
JOHNSTOWN      PTCLDY    53  30  41 W3        30.22F
SOMERSET       MOCLDY    45  32  61 CALM      30.23F
ALTOONA        MOCLDY    52  37  56 CALM      30.22F
STATE COLLEGE  PTCLDY    55  36  47 CALM      30.22F
REEDSVILLE     FAIR      50 N/A N/A CALM      30.22
WELLSBORO      CLOUDY    50  34  53 CALM      30.23F
WILLIAMSPORT   MOCLDY    51  41  68 NW3       30.22S
SELINSGROVE    MOCLDY    49  45  86 CALM      30.23S
FT INDIANTOWN  PTCLDY    48  39  72 CALM      30.24S
CAPITAL CITY   PTCLDY    55  43  63 CALM      30.22F
HARRISBURG     PTCLDY    56  43  61 SE7       30.22S
YORK           PTCLDY    48  41  76 CALM      30.23S
$$

PAZ038>040-043-044-047-048-054-055-060>062-067>071-160700-
EASTERN PENNSYLVANIA

CITY           SKY/WX    TMP DP  RH WIND       PRES   REMARKS
TOWANDA        PTCLDY    50  45  81 SW3       30.27S
SCRANTON       MOCLDY    55  42  61 CALM      30.23R
MOUNT POCONO   PTCLDY    52  37  56 W5        30.24S
HAZLETON       MOCLDY    54  37  54 CALM      30.27S
LEHIGHTON      FAIR      46  46 100 CALM      30.26R
ALLENTOWN      MOCLDY    53  45  74 CALM      30.24R
QN CITY/ALNTWN FAIR      55  41  58 CALM      30.25S
QUAKERTOWN*    CLEAR     48  46  93 CALM      30.25S
PERKASIE*      MOCLDY    50  36  57 CALM      30.26R
DOYLESTOWN     MOCLDY    57  36  45 VRB3      30.24S
READING        MOCLDY    62  39  42 CALM      30.22S
LANCASTER      PTCLDY    57  40  52 E5        30.24S
COATESVILLE    PTCLDY    57  37  47 CALM      30.26F
WEST CHESTER   PTCLDY    55  39  54 CALM      30.25S
POTTSTOWN      MOCLDY    58  35  42 CALM      30.26S
BLUE BELL      MOCLDY    55  40  57 SW3       30.26R
NORTH PHILA    PTCLDY    57  40  52 W8        30.26R
PHILADELPHIA   MOCLDY    57  42  57 SW8       30.25S
$$



USA.gov is the U.S. government's official web portal to all federal, state and local government web resources and services.